sat.trackr.live / text

‹ back to catalog

UMBRA-09

NORAD 60541 · 2024-149CB

PAYLOAD ACTIVE UNKNOWN

§ Identity

Operator
Country
US
Launch date
2024-08-16
Launch site
AFWTR
Launch vehicle
Mass (kg)
RCS (m²)

External: N2YO · Heavens-Above · Gunter

§ Orbital elements

Epoch: 2026-09-22T03:34:13.361664Z

Period
95.20 min
Inclination
97.6932°
Eccentricity
0.0002560
Mean motion
15.12590304 rev/d
Perigee alt
526.5 km
Apogee alt
530.1 km
Semi-major
6,906.4 km
B*
4.4247e-4
RAAN
354.0248°
Arg perigee
342.6858°
Mean anomaly
17.4285°
Rev number
11,543

§ Raw data

UMBRA-091 60541U 24149CB  26265.14876576  .00007658  00000+0  44247-3 0  99902 60541  97.6932 354.0248 0002560 342.6858  17.4285 15.12590304115430

JSON: /api/v1/satellites/60541 · /tle

For live sub-satellite position, see the globe view (requires WebGL).

§ Visibility from observer

Set your observer location to see the next 7 days of passes ≥ 10°. The values pass through the URL so the page stays shareable.

No JS? Fill the form by hand. The geolocation button needs JavaScript.